W9SDA Weather Reports


Display with metric or nautical units.
time (UTC)temp
F
wind
direction
speed
MPH
gust
MPH
rain 1hr
in
rain 24hr
in
rain mn
in
humidity
%
barometer
mb
20260505063100 69 326 3.0 9.0 0.00 0.07 0.00 65 1005.8
20260505061550 69 316 3.0 11.0 0.00 0.07 0.00 65 1005.3
20260505060055 69 310 4.0 11.0 0.00 0.07 0.00 64 1005.0
20260505054554 69 330 3.0 12.0 0.00 0.07 0.00 64 1004.7
20260505053059 69 308 4.0 10.0 0.00 0.07 0.00 64 1004.6
20260505051555 70 317 4.0 13.0 0.00 0.07 0.00 63 1005.0
20260505041553 69 338 1.0 10.0 0.00 0.09 0.07 65 1003.7
20260505040056 69 302 2.0 9.0 0.00 0.09 0.07 64 1004.2
20260505034553 69 310 2.0 10.0 0.00 0.09 0.07 64 1004.3
20260505033053 70 296 1.0 7.0 0.00 0.09 0.07 63 1004.4
20260505031554 70 304 4.0 14.0 0.00 0.09 0.07 62 1004.5
20260505030052 71 313 3.0 10.0 0.00 0.09 0.07 61 1004.4
20260505024555 71 311 4.0 11.0 0.00 0.09 0.07 60 1004.2
20260505023101 71 225 2.0 9.0 0.00 0.09 0.07 60 1003.8
20260505021555 72 251 3.0 12.0 0.01 0.09 0.07 60 1003.3
20260505020054 72 277 4.0 12.0 0.01 0.09 0.07 59 1003.1
20260505014556 73 279 3.0 9.0 0.01 0.09 0.07 59 1003.1
20260505013056 74 315 2.0 9.0 0.01 0.09 0.07 56 1002.9
20260505011553 74 331 4.0 12.0 0.00 0.08 0.06 56 1002.8
20260505010110 74 325 1.0 9.0 0.00 0.08 0.06 57 1002.8
20260505004550 74 220 2.0 9.0 0.00 0.08 0.06 57 1002.5
20260505003055 75 288 4.0 11.0 0.00 0.08 0.06 57 1002.4
20260505001552 74 291 1.0 6.0 0.00 0.08 0.06 62 1002.4
20260505000054 74 0 0.0 4.0 0.00 0.08 0.06 64 1002.4
20260504234552 73 320 3.0 8.0 0.00 0.08 0.06 63 1002.4
20260504233052 73 33 4.0 10.0 0.00 0.08 0.06 65 1002.4
20260504231558 72 265 0.0 2.0 0.00 0.08 0.06 65 1002.1
20260504230055 73 0 0.0 2.0 0.01 0.08 0.06 63 1002.8
20260504224552 74 0 1.0 7.0 0.01 0.08 0.06 62 1003.2
20260504223101 74 295 2.0 8.0 0.01 0.08 0.06 62 1003.7
20260504221604 74 170 1.0 7.0 0.01 0.08 0.06 60 1003.7
20260504220100 75 278 0.0 5.0 0.00 0.07 0.05 61 1003.8
20260504214600 75 318 1.0 12.0 0.00 0.07 0.05 61 1003.5
20260504213104 75 148 3.0 19.0 0.00 0.07 0.05 59 1003.7
20260504211553 75 262 2.0 13.0 0.01 0.07 0.05 61 1004.0
20260504210056 75 327 2.0 9.0 0.01 0.07 0.05 63 1004.1
20260504204559 73 101 3.0 14.0 0.01 0.07 0.05 66 1004.3
20260504203053 73 207 1.0 10.0 0.01 0.07 0.05 68 1004.4
20260504201556 73 205 3.0 14.0 0.00 0.06 0.04 69 1004.6
20260504200053 72 327 4.0 13.0 0.01 0.06 0.04 69 1004.8
20260504194557 70 257 2.0 13.0 0.01 0.06 0.04 72 1004.5
20260504193101 65 153 4.0 12.0 0.01 0.06 0.04 78 1003.5
20260504191601 64 205 2.0 6.0 0.02 0.06 0.04 81 1003.6
20260504190108 63 271 1.0 4.0 0.01 0.05 0.03 82 1005.4
20260504184557 62 243 0.0 4.0 0.02 0.05 0.03 88 1005.7
20260504183057 61 201 1.0 6.0 0.02 0.05 0.03 89 1005.7
20260504181551 60 204 1.0 8.0 0.02 0.04 0.02 87 1006.1
20260504174550 63 0 0.0 7.0 0.01 0.03 0.01 82 1006.5
20260504173057 65 342 0.0 5.0 0.01 0.03 0.01 73 1006.9
20260504171558 66 0 2.0 6.0 0.00 0.02 0.00 69 1006.3
20260504150109 68 275 6.0 18.0 0.00 0.02 0.00 58 1007.8
20260504081555 59 258 0.0 2.0 0.00 0.02 0.00 82 1008.9
20260504080116 58 0 0.0 2.0 0.00 0.02 0.00 82 1009.0